This is the latest recevied weather packets stored in our database for station/object VK4NB-13. If no packets are shown the sender has not sent any weather packets the latest 10 day(s).
| Time | Temp. | Humidity | Pressure | Rain* | Wind** | Luminosity | Snow |
|---|---|---|---|---|---|---|---|
| 1777921501 | 18.33° C | 99% | 1015.6 hPa | 0 mm | - | - | - |
| 1777916702 | 17.78° C | 99% | 1015.1 hPa | 0.25 mm | - | - | - |
| 1777914901 | 18.33° C | 99% | 1015.2 hPa | 0.25 mm | - | - | - |
| 1777914001 | 17.78° C | 99% | 1015.3 hPa | 0.25 mm | - | - | - |
| 1777912802 | 17.22° C | 99% | 1015.6 hPa | 0 mm | - | - | - |
| 1777911301 | 18.89° C | 99% | 1015.6 hPa | 0 mm | - | - | - |
| 1777908302 | 18.89° C | 99% | 1016.2 hPa | 0 mm | - | - | - |
| 1777907102 | 18.33° C | 99% | 1016 hPa | 0 mm | - | - | - |
| 1777905003 | 19.44° C | 99% | 1016.2 hPa | 0 mm | - | - | - |
| 1777904402 | 19.44° C | 99% | 1016.1 hPa | 0 mm | - | - | - |
| 1777903502 | 18.89° C | 99% | 1016.2 hPa | 0 mm | - | - | - |
| 1777901403 | 19.44° C | 99% | 1016.4 hPa | 0 mm | - | - | - |
| 1777900802 | 19.44° C | 99% | 1016.5 hPa | 0 mm | - | - | - |
| 1777900202 | 19.44° C | 99% | 1016.8 hPa | 0 mm | - | - | - |
| 1777899602 | 19.44° C | 99% | 1016.7 hPa | 0 mm | - | - | - |
| 1777899323 | 19.44° C | 99% | 1016.8 hPa | 0 mm | - | - | - |
| 1777898402 | 19.44° C | 99% | 1016.9 hPa | 0 mm | - | - | - |
| 1777895702 | 20° C | 96% | 1017.2 hPa | 0 mm | - | - | - |
| 1777894524 | 20° C | 97% | 1017.3 hPa | 0 mm | - | - | - |
| 1777893002 | 20° C | 96% | 1017.2 hPa | 0 mm | - | - | - |
| 1777892702 | 20° C | 95% | 1017.1 hPa | 0 mm | - | - | - |
| 1777892102 | 20.56° C | 95% | 1017.2 hPa | 0 mm | - | - | - |
| 1777891823 | 20.56° C | 95% | 1017.1 hPa | 0 mm | - | - | - |
| 1777890903 | 20° C | 96% | 1017.3 hPa | 0 mm | - | - | - |
| 1777883703 | 21.67° C | 91% | 1015.9 hPa | 1.52 mm | - | - | - |
* Rain latest hour (hover to see other rain measurements)
** Current wind speed in m/s (hover to see current wind gust speed)